Weather History for Arctic Village, AK

Change the Weather History Date:

Tuesday, December 18, 2012

  Actual Average Record
Temperature  
Mean Temperature -36 °F -  
Max Temperature -27 °F -4 °F 20 °F (1962)
Min Temperature -45 °F -24 °F -47 °F (2010)
Degree Days  
Heating Degree Days 101    
Moisture  
Dew Point -    
Average Humidity    
Maximum Humidity    
Minimum Humidity    
Precipitation  
Precipitation 0.00 in - - ()
Sea Level Pressure  
Sea Level Pressure 29.47 in    
Wind  
Wind Speed 0 mph (North)    
Max Wind Speed 0 mph    
Max Gust Speed -    
Visibility 7 miles    
Events      
Averages and records for this station are not official NWS values.
T = Trace of Precipitation, MM = Missing Value Source: NWS Daily Summary

Daily Weather History Graph

Daily Weather History Graph

Search for Another Location

Airport:

Trip Planner

Search our weather history database for the weather conditions in past years. The results will help you decide how hot, cold, wet, or windy it might be!

Date:

Astronomy

Dec. 18, 2012 Rise Set
Actual Time 12:06 PM AKST 1:11 PM AKST
Civil Twilight 10:01 AM AKST 3:17 PM AKST
Nautical Twilight 8:31 AM AKST 4:47 PM AKST
Astronomical Twilight 7:19 AM AKST 5:59 PM AKST
Moon 12:03 PM AKST (12/18) 11:51 PM AKST (12/18)
Length of Visible Light 5h 15m
Length of Day
1h 04m
Waxing Crescent, 36% of the Moon is Illuminated
Dec 18
Waxing Crescent
Dec 19
First Quarter
Dec 28
Full
Jan 4
Last Quarter
Jan 11
New

Hourly Weather History & Observations

Time (AKST) Temp. Dew Point Humidity Pressure Visibility Wind Dir Wind Speed Gust Speed Precip Events Conditions
12:16 AM -45.4 °F - N/A% 29.54 in 5.0 mi Calm Calm - N/A   Clear
12:36 AM -45.4 °F - N/A% 29.54 in 4.0 mi Calm Calm - N/A   Clear
12:56 AM -45.4 °F - N/A% 29.54 in 10.0 mi Calm Calm - N/A   Clear
1:16 AM -45.4 °F - N/A% 29.53 in 10.0 mi Calm Calm - N/A   Clear
1:36 AM - - N/A% 29.52 in 4.0 mi Calm Calm - N/A   Clear
1:56 AM -45.4 °F - N/A% 29.52 in 1.8 mi Calm Calm - N/A   Clear
2:16 AM -45.4 °F - N/A% 29.51 in 1.5 mi Calm Calm - N/A   Clear
2:36 AM - - N/A% 29.50 in 2.5 mi Calm Calm - N/A   Clear
3:16 AM -45.4 °F - N/A% 29.50 in 2.5 mi Calm Calm - N/A   Clear
3:36 AM -45.4 °F - N/A% 29.49 in 6.0 mi Calm Calm - N/A   Clear
3:56 AM - - N/A% 29.49 in 2.0 mi Calm Calm - N/A   Clear
4:16 AM -45.4 °F - N/A% 29.48 in 2.0 mi Calm Calm - N/A   Clear
4:36 AM -45.4 °F - N/A% 29.48 in 1.5 mi Calm Calm - N/A   Clear
4:56 AM -45.4 °F - N/A% 29.47 in 2.0 mi Calm Calm - N/A   Clear
5:16 AM -45.4 °F - N/A% 29.47 in 2.0 mi Calm Calm - N/A   Clear
5:36 AM -45.4 °F - N/A% 29.46 in 4.0 mi Calm Calm - N/A   Clear
5:56 AM -45.4 °F - N/A% 29.46 in 3.0 mi Calm Calm - N/A   Clear
6:16 AM -43.6 °F - N/A% 29.46 in 1.5 mi Calm Calm - N/A   Clear
6:36 AM -45.4 °F - N/A% 29.45 in 3.0 mi Calm Calm - N/A   Clear
6:56 AM -43.6 °F - N/A% 29.45 in 1.8 mi Calm Calm - N/A   Clear
7:16 AM -45.4 °F - N/A% 29.45 in 3.0 mi Calm Calm - N/A   Clear
7:36 AM -41.8 °F - N/A% 29.44 in 1.0 mi Calm Calm - N/A   Clear
7:56 AM -41.8 °F - N/A% 29.44 in 4.0 mi Calm Calm - N/A   Clear
8:16 AM -41.8 °F - N/A% 29.43 in 2.5 mi Calm Calm - N/A   Clear
8:36 AM -41.8 °F - N/A% 29.43 in 5.0 mi Calm Calm - N/A   Clear
8:56 AM -41.8 °F - N/A% 29.43 in 2.0 mi Calm Calm - N/A   Clear
9:16 AM -40.0 °F - N/A% 29.43 in 1.5 mi Calm Calm - N/A   Clear
9:36 AM -41.8 °F - N/A% 29.43 in 2.0 mi Calm Calm - N/A   Clear
9:56 AM -40.0 °F - N/A% 29.43 in 1.8 mi Calm Calm - N/A   Clear
10:16 AM -38.2 °F - N/A% 29.43 in 3.0 mi Calm Calm - N/A   Clear
10:36 AM -38.2 °F - N/A% 29.43 in 1.8 mi Calm Calm - N/A   Clear
10:56 AM -36.4 °F - N/A% 29.42 in 3.0 mi Calm Calm - N/A   Clear
11:16 AM -36.4 °F - N/A% 29.42 in 9.0 mi Calm Calm - N/A   Clear
11:36 AM -36.4 °F - N/A% 29.42 in 10.0 mi Calm Calm - N/A   Clear
12:16 PM -34.6 °F - N/A% 29.43 in 10.0 mi Calm Calm - N/A   Clear
12:36 PM -34.6 °F - N/A% 29.43 in 10.0 mi Calm Calm - N/A   Clear
12:56 PM -36.4 °F - N/A% 29.43 in 8.0 mi Calm Calm - N/A   Clear
1:16 PM -36.4 °F - N/A% 29.43 in 7.0 mi Calm Calm - N/A   Clear
1:36 PM -36.4 °F - N/A% 29.44 in 10.0 mi Calm Calm - N/A   Clear
1:56 PM -36.4 °F - N/A% 29.44 in 10.0 mi Calm Calm - N/A   Clear
2:16 PM -36.4 °F - N/A% 29.44 in 10.0 mi Calm Calm - N/A   Clear
2:36 PM -36.4 °F - N/A% 29.44 in 3.0 mi Calm Calm - N/A   Clear
2:56 PM -36.4 °F - N/A% 29.43 in 5.0 mi Calm Calm - N/A   Clear
3:16 PM -34.6 °F - N/A% 29.43 in 10.0 mi Calm Calm - N/A   Clear
3:36 PM -34.6 °F - N/A% 29.43 in 10.0 mi Calm Calm - N/A   Clear
3:56 PM -36.4 °F - N/A% 29.43 in 10.0 mi Calm Calm - N/A   Clear
4:16 PM -34.6 °F - N/A% 29.44 in 10.0 mi Calm Calm - N/A   Clear
4:36 PM -36.4 °F - N/A% 29.43 in 10.0 mi Calm Calm - N/A   Clear
4:56 PM -36.4 °F - N/A% 29.44 in 9.0 mi Calm Calm - N/A   Clear
5:16 PM -36.4 °F - N/A% 29.44 in 10.0 mi Calm Calm - N/A   Clear
5:36 PM -34.6 °F - N/A% 29.45 in 10.0 mi Calm Calm - N/A   Clear
5:56 PM -36.4 °F - N/A% 29.45 in 10.0 mi Calm Calm - N/A   Clear
6:16 PM -36.4 °F - N/A% 29.46 in 10.0 mi Calm Calm - N/A   Clear
6:36 PM -36.4 °F - N/A% 29.46 in 10.0 mi Calm Calm - N/A   Clear
6:56 PM -36.4 °F - N/A% 29.47 in 10.0 mi Calm Calm - N/A   Clear
7:16 PM -36.4 °F - N/A% 29.47 in 10.0 mi Calm Calm - N/A   Clear
7:36 PM -36.4 °F - N/A% 29.48 in 10.0 mi Calm Calm - N/A   Clear
7:56 PM -34.6 °F - N/A% 29.48 in 10.0 mi Calm Calm - N/A   Partly Cloudy
8:16 PM -34.6 °F - N/A% 29.48 in 10.0 mi Calm Calm - N/A   Clear
8:36 PM -34.6 °F - N/A% 29.49 in 10.0 mi Calm Calm - N/A   Partly Cloudy
8:56 PM -34.6 °F - N/A% 29.50 in 10.0 mi Calm Calm - N/A   Partly Cloudy
9:16 PM -32.8 °F - N/A% 29.50 in 10.0 mi Calm Calm - N/A   Scattered Clouds
9:36 PM -32.8 °F - N/A% 29.50 in 10.0 mi Calm Calm - N/A   Scattered Clouds
9:56 PM -32.8 °F - N/A% 29.51 in 10.0 mi Calm Calm - N/A   Partly Cloudy
10:16 PM -32.8 °F - N/A% 29.52 in 10.0 mi Calm Calm - N/A   Partly Cloudy
10:36 PM -31.0 °F - N/A% 29.53 in 9.0 mi Calm Calm - N/A   Mostly Cloudy
10:56 PM -29.2 °F - N/A% 29.54 in 10.0 mi Calm Calm - N/A   Overcast
11:16 PM -27.4 °F - N/A% 29.55 in 10.0 mi Calm Calm - N/A   Overcast
11:36 PM -27.4 °F - N/A% 29.56 in 10.0 mi Calm Calm - N/A   Overcast
11:56 PM -27.4 °F - N/A% 29.57 in 10.0 mi Calm Calm - N/A   Overcast